sat.trackr.live / text

‹ back to catalog

ARKTIKA-M 2

NORAD 58584 · 2023-198A

PAYLOAD ACTIVE UNKNOWN

§ Identity

Operator
Country
CIS
Launch date
2023-12-16
Launch site
TYMSC
Launch vehicle
Mass (kg)
RCS (m²)

Purposes: earth_obs

External: N2YO · Heavens-Above · Gunter

§ Orbital elements

Epoch: 2026-08-18T01:47:07.105920Z

Period
717.87 min
Inclination
63.2129°
Eccentricity
0.6901614
Mean motion
2.00593343 rev/d
Perigee alt
1,850.5 km
Apogee alt
38,508.7 km
Semi-major
26,557.7 km
B*
0.0000e+0
RAAN
147.3319°
Arg perigee
267.6403°
Mean anomaly
18.7125°
Rev number
1,956

§ Raw data

ARKTIKA-M 21 58584U 23198A   26230.07438780  .00000056  00000+0  00000+0 0  99922 58584  63.2129 147.3319 6901614 267.6403  18.7125  2.00593343 19562

JSON: /api/v1/satellites/58584 · /tle

For live sub-satellite position, see the globe view (requires WebGL).

§ Visibility from observer

Set your observer location to see the next 7 days of passes ≥ 10°. The values pass through the URL so the page stays shareable.

No JS? Fill the form by hand. The geolocation button needs JavaScript.